OpenBCM V1.07b12 (Linux)

Packet Radio Mailbox

DB0FHN

[JN59NK Nuernberg]

 Login: GUEST





  
DB3DH  > KEPLER   04.05.03 19:58l 169 Lines 8011 Bytes #999 (20) @ DL
BID : T4DDB0GOS01K
Read: DB0FHN GUEST
Subj: 2Line vom 24.04.03 (AMSAT)
Path: DB0FHN<DB0ZWI<DB0HOT<DB0ERF<DB0FBB<DB0GOS
Sent: 030429/1856z @:DB0GOS.#NRW.DEU.EU [Essen, JO31LJ] openbcm1.03 LT:020
From: DB3DH @ DB0GOS.#NRW.DEU.EU (Gerd)
To:   KEPLER @ DL
X-Info: No login password

SB KEPS @ AMSAT  $ORB03114.N
2Line Orbital Elements 03114.AMSAT

HR AMSAT ORBITAL ELEMENTS FOR AMATEUR SATELLITES IN NASA FORMAT
FROM WA5QGD FORT WORTH,TX April 24, 2003
SEND SUBSCRIBE/UNSUBSCRIBE TO majordomo@amsat.org ONLY
BID: ORB03114.N

DECODE 2-LINE ELSETS WITH THE FOLLOWING KEY:
1 AAAAAU 00  0  0 BBBBB.BBBBBBBB  .CCCCCCCC  00000-0  00000-0 0  DDDZ
2 AAAAA EEE.EEEE FFF.FFFF GGGGGGG HHH.HHHH III.IIII JJ.JJJJJJJJKKKKKZ
KEY: A-CATALOGNUM B-EPOCHTIME C-DECAY D-ELSETNUM E-INCLINATION F-RAAN
G-ECCENTRICITY H-ARGPERIGEE I-MNANOM J-MNMOTION K-ORBITNUM Z-CHECKSUM

TO ALL RADIO AMATEURS BT

AO-07
1 07530U 74089B   03114.65421652 -.00000029  00000-0  10000-3 0  1654
2 07530 101.7499 161.7987 0012176 313.3465  46.6589 12.53565273301347
AO-10
1 14129U 83058B   03112.06477433  .00000080  00000-0  10000-3 0  9297
2 14129  26.0883 154.0763 6002109 345.9118   2.9387  2.05866513149325
UO-11
1 14781U 84021B   03113.92200900  .00001034  00000-0  15005-3 0  1293
2 14781  98.1277  88.3929 0009886  11.5935 348.5502 14.78185761 25744
RS-10/11
1 18129U 87054A   03114.09117468  .00000049  00000-0  36614-4 0  2271
2 18129  82.9199  98.8312 0013299  51.7421 308.4926 13.72707584793360
FO-20
1 20480U 90013C   03113.94016040 -.00000053  00000-0 -41560-4 0 04859
2 20480 099.0566 064.6211 0539743 218.0040 138.1803 12.83331195618776
RS-12/13
1 21089U 91007A   03114.55083539  .00000078  00000-0  66454-4 0  5073
2 21089  82.9212 133.1744 0030814 103.6662 256.7921 13.74411402612715
RS-15
1 23439U 94085A   03114.03878593 -.00000042  00000-0  23860-4 0  6974
2 23439  64.8138 297.2315 0146453 102.5715 259.1632 11.27548633342867
FO-29
1 24278U 96046B   03113.95829576 -.00000023  00000-0  10342-4 0 05780
2 24278 098.5483 256.4646 0351447 049.6580 313.4699 13.52879009330017
SO-33
1 25509U 98061B   03113.50319315  .00000282  00000-0  44394-4 0  8304
2 25509  31.4266 152.1009 0357258 141.2158 221.4682 14.27486859234452
AO-40
1 26609U 00072B   03109.00807478 -.00000346  00000-0  10000-3 0  3250
2 26609   8.5228  53.4139 7957312 165.7240 252.3808  1.25596241 11335
UO-14
1 20437U 90005B   03114.65424921  .00000075  00000-0  43674-4 0  2164
2 20437  98.2618 155.1227 0011412  13.2828 346.8653 14.31259588691803
AO-16
1 20439U 90005D   03113.67982229  .00000149  00000-0  71492-4 0 08838
2 20439 098.3046 166.2468 0011401 023.0248 337.1491 14.31498145691700
WO-18
1 20441U 90005F   03114.21610788  .00000089  00000-0  49194-4 0   659
2 20441  98.3207 169.9727 0012305  21.2358 338.9332 14.31578712691832
LO-19
1 20442U 90005G   03113.69793733  .00000118  00000-0  59907-4 0 09995
2 20442 098.3368 172.6168 0012617 021.1922 338.9782 14.31742956691813
UO-22
1 21575U 91050B   03113.95706901  .00000191  00000-0  74818-4 0 07867
2 21575 098.1481 102.8711 0006834 306.5011 053.5548 14.39200741617544
KO-23
1 22077U 92052B   03113.93929209 -.00000037  00000-0  10000-3 0 02535
2 22077 066.0837 350.9260 0015550 259.6680 100.2585 12.86410729502588
AO-27
1 22825U 93061C   03114.17234470  .00000074  00000-0  45211-4 0  5393
2 22825  98.2660 140.5580 0009598  67.9897 292.2301 14.28965779499102
IO-26
1 22826U 93061D   03114.89259926  .00000096  00000-0  53822-4 0  3430
2 22826  98.2695 142.3850 0010072  65.4672 294.7557 14.29191238499252
KO-25
1 22828U 93061F   03114.15745902  .00000074  00000-0  45034-4 0  4797
2 22828  98.2632 141.9512 0010962  48.8859 311.3267 14.29529495467355
TO-31
1 25396U 98043C   03113.91967899 -.00000043  00000-0  00000-0 0 09500
2 25396 098.6172 189.7309 0001473 324.0858 036.0229 14.23530544248683
GO-32
1 25397U 98043D   03113.96662678  .00000050  00000-0  41163-4 0 01882
2 25397 098.6113 188.5723 0001052 006.2329 353.8866 14.22974445248656
UO-36
1 25693U 99021A   03114.64321399  .00000236  00000-0  53586-4 0  9084
2 25693  64.5581 171.5988 0026228 312.4596  47.4289 14.76457554215869
AO-37
1 26065U 00004E   03114.82013119  .00000123  00000-0  62686-4 0  7881
2 26065 100.1983 181.3596 0037963 104.2910 256.2489 14.35539744169749
SO-41
1 26545U 00057A   03114.65787872  .00001210  00000-0  17912-3 0  4423
2 26545  64.5588 191.8467 0047022 228.4568 131.2511 14.79150838138840
MO-46
1 26548U 00057D   03113.70116544  .00001350  00000-0  18797-3 0  4453
2 26548  64.5567 186.9559 0040488 228.8726 130.8894 14.81484806138865
SO-42
1 26549U 00057E   03113.72602962  .00000823  00000-0  13086-3 0  7329
2 26549  64.5514 199.1531 0051621 228.0530 131.6171 14.78075830138620
NO-44
1 26931U 01043C   03114.39970460  .00000101  00000-0  72285-4 0  4575
2 26931  67.0465  88.7070 0005946 274.2073  85.8350 14.29150347 81611
AO-49
1 27605U 02058A   03113.80699158  .00000427  00000-0  89661-4 0  1156
2 27605  64.5585   2.1630 0034958  83.7121 276.7956 14.71469784 18268
SO-50
1 27607U 02058C   03113.79661828  .00000703  00000-0  13768-3 0  1082
2 27607  64.5517   3.0823 0036301  80.1908 280.3289 14.70045313 18242
NOAA-10
1 16969U 86073A   03114.47293390  .00000081  00000-0  51534-4 0  7473
2 16969  98.7357 108.4841 0011496 258.6435 101.3454 14.27090405863166
NOAA-11
1 19531U 88089A   03114.44475132  .00000185  00000-0  96245-4 0  5834
2 19531  98.8913 195.5834 0011864  22.9909 337.2266 14.14568428751976
NOAA-12
1 21263U 91032A   03114.42799541  .00000202  00000-0  10457-3 0   545
2 21263  98.6340 103.0009 0012215 188.7984 171.2983 14.25126353620455
MET-3/5
1 21655U 91056A   03113.94592690  .00000051  00000-0  10000-3 0 06146
2 21655 082.5590 353.3928 0014515 039.9920 320.2270 13.16981614561953
MET-2/21
1 22782U 93055A   03113.82655610  .00000048  00000-0  29903-4 0  5764
2 22782  82.5485 163.9489 0023079 162.1837 198.0136 13.83537053486974
OKEAN-4
1 23317U 94066A   03113.96939340  .00001285  00000-0  16198-3 0 02348
2 23317 082.5373 268.9747 0022157 196.1660 163.8855 14.81084383459638
NOAA-14
1 23455U 94089A   03114.46395692  .00000085  00000-0  70369-4 0  6058
2 23455  99.1833 134.7362 0010117  51.2125 308.9950 14.13321757428648
SICH-1
1 23657U 95046A   03114.21776916  .00001142  00000-0  14684-3 0    68
2 23657  82.5312  49.5249 0024243 176.7219 183.4158 14.80132463411791
NOAA-15
1 25338U 98030A   03114.44071372  .00000150  00000-0  83305-4 0   909
2 25338  98.5471 134.8266 0011318 124.7413 235.4834 14.24275041257039
RESURS
1 25394U 98043A   03114.35455043  .00000102  00000-0  63525-4 0  5023
2 25394  98.6195 191.0505 0000466 298.1932  61.9200 14.23901653248752
FENGYUN1
1 25730U 99025A   03114.36143181  .00000059  00000-0  55434-4 0  8198
2 25730  98.6272 136.3173 0014449 174.3356 185.7982 14.11741821203777
OKEAN-0
1 25860U 99039A   03113.97998671  .00000444  00000-0  77163-4 0 00200
2 25860 097.8554 159.4032 0000878 118.9676 241.1621 14.72698361202419
NOAA-16
1 26536U 00055A   03114.35229154  .00000269  00000-0  17141-3 0  3013
2 26536  98.9111  62.1943 0011358 120.2845 239.9479 14.11941519133295
NOAA-17
1 27453U 02032A   03114.45090429  .00000217  00000-0  11505-3 0  3865
2 27453  98.7444 185.2828 0012147 164.6916 195.4633 14.23333706 43191
HUBBLE
1 20580U 90037B   03114.05805698  .00003141  00000-0  24583-3 0  4038
2 20580  28.4690 339.0335 0004118 226.7910 258.3401 14.98090009512318
UARS
1 21701U 91063B   03114.14852722  .00000341  00000-0  44034-4 0  8772
2 21701  56.9794 130.6336 0005010  85.7264 274.4345 15.02993770635425
PO-34
1 25520U 98064B   03113.49851417  .00002111  00000-0  10240-3 0 06686
2 25520 028.4618 157.9333 0005748 324.2274 035.7949 15.14207751247287
ISS
1 25544U 98067A   03114.80204861  .00011928  00000-0  15955-3 0  9256
2 25544  51.6330 288.4378 0006665  52.8150 150.8331 15.58472350252677
WO-39
1 26061U 00004A   03113.87624683  .00000373  00000-0  14190-3 0  8193
2 26061 100.1943 182.8410 0035792  98.0472 262.4772 14.37903339169777
OO-38
1 26063U 00004C   03113.74938099  .00000114  00000-0  59586-4 0  7696
2 26063 100.2012 179.9320 0037610 106.1558 254.3765 14.35509238169591
NO-45
1 26932U 01043D   03114.22995040  .00000004  00000-0  34069-4 0  4513
2 26932  67.0534  88.8351 0003963 266.6909  93.3738 14.29318779 81611


Read previous mail | Read next mail


 19.09.2025 05:40:41lGo back Go up